DW1482 Weather Reports


Display with metric or nautical units.
time (UTC)temp
F
wind
direction
speed
MPH
gust
MPH
rain 1hr
in
rain 24hr
in
rain mn
in
humidity
%
barometer
mb
20260904080023 64 103 0.0 3.0 0.00 0.00 0.00 87 1010.5
20260904074558 65 103 0.0 4.0 0.00 0.00 0.00 87 1010.4
20260904073028 65 67 0.0 8.0 0.00 0.00 0.00 87 1010.2
20260904071519 65 71 3.0 7.0 0.00 0.00 0.00 87 1009.9
20260904070024 66 54 3.0 6.0 0.00 0.00 0.00 86 1009.7
20260904064530 66 44 2.0 6.0 0.00 0.00 0.00 85 1009.8
20260904063034 67 36 1.0 8.0 0.00 0.00 0.00 85 1009.8
20260904061503 67 58 3.0 10.0 0.00 0.00 0.00 84 1009.7
20260904060005 67 59 3.0 9.0 0.00 0.00 0.00 85 1009.6
20260904054509 67 36 4.0 8.0 0.00 0.00 0.00 85 1009.5
20260904053014 67 53 3.0 6.0 0.00 0.00 0.00 86 1009.6
20260904051509 67 53 3.0 9.0 0.00 0.00 0.00 85 1009.6
20260904050004 68 31 2.0 9.0 0.00 0.00 0.00 85 1009.4
20260904044511 68 42 0.0 1.0 0.00 0.00 0.00 85 1008.8
20260904043014 68 42 0.0 5.0 0.00 0.00 0.00 84 1008.7
20260904041503 69 50 0.0 6.0 0.00 0.00 0.00 84 1008.7
20260904040003 70 52 0.0 3.0 0.00 0.00 0.00 83 1008.7
20260904034508 70 52 0.0 4.0 0.00 0.00 0.00 81 1008.5
20260904033016 71 52 1.0 5.0 0.00 0.00 0.00 81 1008.6
20260904031526 72 55 2.0 6.0 0.00 0.00 0.00 80 1008.4
20260904030003 72 56 0.0 5.0 0.00 0.00 0.00 79 1008.4
20260904024509 73 43 3.0 7.0 0.00 0.00 0.00 78 1008.2
20260904023025 74 23 3.0 9.0 0.00 0.00 0.00 77 1007.9
20260904021534 75 27 1.0 9.0 0.00 0.00 0.00 75 1007.9
20260904020004 76 38 2.0 9.0 0.00 0.00 0.00 72 1007.6
20260904014512 78 28 3.0 9.0 0.00 0.00 0.00 71 1007.2
20260904013020 80 17 5.0 11.0 0.00 0.00 0.00 69 1007.1
20260904011533 81 20 4.0 11.0 0.00 0.00 0.00 66 1007.0
20260904010007 84 47 2.0 9.0 0.00 0.00 0.00 63 1006.8
20260904004516 85 360 1.0 10.0 0.00 0.00 0.00 60 1006.5
20260904003020 88 346 5.0 12.0 0.00 0.00 0.00 55 1006.1
20260904001529 89 10 2.0 7.0 0.00 0.00 0.00 49 1005.7
20260904000014 91 40 5.0 11.0 0.00 0.00 0.00 45 1005.7
20260903234513 92 355 3.0 16.0 0.00 0.00 0.00 39 1005.3
20260903233024 93 302 4.0 12.0 0.00 0.00 0.00 39 1005.0
20260903231528 95 315 5.0 10.0 0.00 0.00 0.00 34 1004.9
20260903230031 96 263 4.0 9.0 0.00 0.00 0.00 30 1004.6
20260903224534 96 265 3.0 9.0 0.00 0.00 0.00 31 1004.7
20260903223024 96 241 3.0 10.0 0.00 0.00 0.00 29 1004.7
20260903221531 95 254 4.0 10.0 0.00 0.00 0.00 46 1004.6
20260903220030 94 256 2.0 12.0 0.00 0.00 0.00 47 1004.4
20260903214521 94 219 4.0 13.0 0.00 0.00 0.00 47 1004.3
20260903213035 94 207 3.0 8.0 0.00 0.00 0.00 47 1004.4
20260903211540 94 221 5.0 12.0 0.00 0.00 0.00 47 1004.3
20260903210015 94 286 3.0 12.0 0.00 0.00 0.00 49 1004.3
20260903204517 94 267 6.0 13.0 0.00 0.00 0.00 46 1004.4
20260903203007 94 259 4.0 12.0 0.00 0.00 0.00 47 1004.3
20260903201508 93 236 3.0 15.0 0.00 0.00 0.00 52 1004.5
20260903200019 92 200 7.0 15.0 0.00 0.00 0.00 50 1004.5
20260903194541 92 238 4.0 14.0 0.00 0.00 0.00 50 1004.5
20260903193004 91 227 3.0 15.0 0.00 0.00 0.00 51 1004.3
20260903191524 91 249 4.0 14.0 0.00 0.00 0.00 50 1004.2
20260903190018 90 210 7.0 12.0 0.00 0.00 0.00 51 1004.3
20260903184525 90 238 1.0 15.0 0.00 0.00 0.00 52 1004.4
20260903183029 90 254 4.0 12.0 0.00 0.00 0.00 52 1004.6
20260903181530 88 227 3.0 13.0 0.00 0.00 0.00 54 1004.5
20260903180017 88 239 5.0 15.0 0.00 0.00 0.00 54 1004.8
20260903174526 88 252 1.0 8.0 0.00 0.00 0.00 60 1004.9
20260903173030 87 262 0.0 10.0 0.00 0.00 0.00 64 1004.9
20260903171522 86 221 2.0 8.0 0.00 0.00 0.00 59 1004.9
20260903170018 85 239 1.0 7.0 0.00 0.00 0.00 62 1005.0
20260903164529 85 244 3.0 8.0 0.00 0.00 0.00 64 1005.3
20260903163036 84 215 2.0 7.0 0.00 0.00 0.00 67 1005.5
20260903161512 82 229 2.0 9.0 0.00 0.00 0.00 68 1005.4
20260903160025 82 240 2.0 5.0 0.00 0.00 0.00 71 1005.4
20260903154530 81 167 1.0 7.0 0.00 0.00 0.00 75 1005.6
20260903153030 80 153 1.0 5.0 0.00 0.00 0.00 79 1005.5
20260903151515 78 248 0.0 6.0 0.00 0.00 0.00 82 1005.8
20260903150036 76 238 0.0 8.0 0.00 0.00 0.00 85 1006.0
20260903144531 74 242 0.0 10.0 0.00 0.00 0.00 86 1006.1
20260903143035 73 249 0.0 7.0 0.00 0.00 0.00 87 1006.2
20260903141520 72 257 0.0 0.0 0.00 0.00 0.00 89 1006.1
20260903140027 72 257 0.0 0.0 0.00 0.00 0.00 89 1006.0
20260903134528 71 257 0.0 0.0 0.00 0.00 0.00 89 1005.9
20260903133032 71 257 0.0 6.0 0.00 0.00 0.00 89 1006.4
20260903131535 71 103 0.0 0.0 0.00 0.00 0.00 90 1005.5
20260903130027 70 103 0.0 0.0 0.00 0.00 0.00 91 1005.7
20260903124531 70 103 0.0 0.0 0.00 0.00 0.00 90 1005.6
20260903123033 70 103 0.0 0.0 0.00 0.00 0.00 90 1005.6
20260903121532 70 101 0.0 3.0 0.00 0.00 0.00 90 1005.7
20260903120015 70 99 0.0 3.0 0.00 0.00 0.00 90 1005.9
20260903114511 70 88 0.0 6.0 0.00 0.00 0.00 90 1005.9
20260903113016 69 99 1.0 6.0 0.00 0.00 0.00 90 1005.8
20260903111516 69 101 1.0 3.0 0.00 0.00 0.00 90 1006.1
20260903110016 69 119 0.0 4.0 0.00 0.00 0.00 90 1006.0
20260903104510 69 126 1.0 4.0 0.00 0.00 0.00 90 1006.2
20260903103020 69 105 0.0 0.0 0.00 0.00 0.00 90 1006.5
20260903101519 69 104 0.0 0.0 0.00 0.00 0.00 90 1006.7
20260903100028 69 106 0.0 4.0 0.00 0.00 0.00 89 1006.5
20260903094512 69 106 0.0 3.0 0.00 0.00 0.00 90 1006.4
20260903093026 69 116 0.0 0.0 0.00 0.00 0.00 90 1006.4
20260903091524 69 100 0.0 3.0 0.00 0.00 0.00 89 1006.4
20260903090029 69 79 0.0 3.0 0.00 0.00 0.00 89 1006.5
20260903084515 68 78 1.0 4.0 0.00 0.00 0.00 89 1006.7
20260903083024 67 69 1.0 3.0 0.00 0.00 0.00 88 1006.7